Huntsville, AL

9:53 AM CDT on June 22, 2017 (GMT -0500)
Huntsville International

Weather History for KHSV - April, 2012

Change the Weather History Date:

Wednesday, April 25, 2012

  Actual Average Record
Temperature  
Mean Temperature 70 °F 64 °F  
Max Temperature 84 °F 76 °F 90 °F (1960)
Min Temperature 55 °F 53 °F 26 °F (1910)
Degree Days  
Heating Degree Days 0 3  
Month to date heating degree days 95 141  
Since 1 July heating degree days 2339 2961  
Cooling Degree Days 5 3  
Month to date cooling degree days 51 43  
Year to date cooling degree days 133 57  
Growing Degree Days 20 (Base 50)    
Moisture  
Dew Point 52 °F    
Average Humidity 54    
Maximum Humidity 67    
Minimum Humidity 40    
Precipitation  
Precipitation 0.00 in 0.15 in 2.06 in (1993)
Month to date precipitation 2.17 3.57  
Year to date precipitation 17.84 18.51  
Snow  
Snow 0.00 in - - ()
Month to date snowfall 0.0  
Since 1 July snowfall T  
Snow Depth 0.00 in    
Sea Level Pressure  
Sea Level Pressure 29.85 in    
Wind  
Wind Speed 9 mph (SW)    
Max Wind Speed 18 mph    
Max Gust Speed 23 mph    
Visibility 10 miles    
Events      
T = Trace of Precipitation, MM = Missing Value Source: NWS Daily Summary

Daily Weather History Graph

Daily Weather History Graph

Search for Another Location

Airport or City:

Trip Planner

Search our weather history database for the weather conditions in past years. The results will help you decide how hot, cold, wet, or windy it might be!

Date:

Astronomy

Apr. 25, 2012 Rise Set
Actual Time 6:02 AM CDT 7:27 PM CDT
Civil Twilight 5:36 AM CDT 7:54 PM CDT
Nautical Twilight 5:04 AM CDT 8:26 PM CDT
Astronomical Twilight 4:31 AM CDT 8:59 PM CDT
Moon 8:53 AM CDT (4/25) 11:27 PM CDT (4/25)
Length of Visible Light 14h 17m
Length of Day
13h 24m
Waxing Crescent, 17% of the Moon is Illuminated
Apr 25
Waxing Crescent
Apr 29
First Quarter
May 5
Full
May 12
Last Quarter
May 20
New

Hourly Weather History & Observations

Time (CDT) Temp. Heat Index Dew Point Humidity Pressure Visibility Wind Dir Wind Speed Gust Speed Precip Events Conditions
12:53 AM 60.1 °F - 43.0 °F 53% 29.86 in 10.0 mi SSW 6.9 mph - N/A   Partly Cloudy
1:53 AM 57.9 °F - 44.1 °F 60% 29.86 in 10.0 mi Calm Calm - N/A   Scattered Clouds
2:53 AM 57.9 °F - 44.1 °F 60% 29.86 in 10.0 mi SSW 5.8 mph - N/A   Scattered Clouds
3:53 AM 57.2 °F - 44.6 °F 63% 29.86 in 10.0 mi SSW 5.8 mph - N/A   Scattered Clouds
4:53 AM 57.0 °F - 45.0 °F 64% 29.86 in 10.0 mi SSW 5.8 mph - N/A   Partly Cloudy
5:53 AM 55.9 °F - 45.0 °F 67% 29.87 in 10.0 mi SSW 4.6 mph - N/A   Partly Cloudy
6:53 AM 57.0 °F - 46.0 °F 67% 29.88 in 10.0 mi SSW 5.8 mph - N/A   Partly Cloudy
7:53 AM 61.0 °F - 48.0 °F 62% 29.89 in 10.0 mi SW 9.2 mph - N/A   Partly Cloudy
8:53 AM 64.9 °F - 50.0 °F 58% 29.91 in 10.0 mi SW 9.2 mph - N/A   Partly Cloudy
9:53 AM 69.1 °F - 53.1 °F 57% 29.91 in 10.0 mi SW 9.2 mph - N/A   Scattered Clouds
10:53 AM 73.9 °F - 55.0 °F 52% 29.89 in 10.0 mi SSW 8.1 mph - N/A   Partly Cloudy
11:53 AM 78.1 °F - 57.0 °F 48% 29.87 in 10.0 mi WSW 11.5 mph 20.7 mph N/A   Partly Cloudy
12:53 PM 80.1 °F 80.6 °F 57.9 °F 47% 29.85 in 10.0 mi SW 13.8 mph 20.7 mph N/A   Partly Cloudy
1:53 PM 82.4 °F 82.0 °F 57.2 °F 42% 29.85 in 10.0 mi SW 13.8 mph 23.0 mph N/A   Partly Cloudy
2:53 PM 84.0 °F 83.5 °F 57.9 °F 41% 29.83 in 10.0 mi SW 13.8 mph - N/A   Scattered Clouds
3:53 PM 84.0 °F 83.3 °F 57.0 °F 40% 29.81 in 10.0 mi SW 11.5 mph 23.0 mph N/A   Mostly Cloudy
4:53 PM 81.0 °F 81.1 °F 57.9 °F 45% 29.83 in 10.0 mi SW 9.2 mph 20.7 mph N/A   Mostly Cloudy
5:53 PM 79.0 °F - 57.0 °F 47% 29.83 in 10.0 mi SW 9.2 mph - N/A   Overcast
6:53 PM 77.0 °F - 57.9 °F 52% 29.80 in 10.0 mi South 10.4 mph - N/A   Overcast
7:53 PM 75.0 °F - 55.9 °F 51% 29.80 in 10.0 mi South 9.2 mph - N/A   Mostly Cloudy
8:53 PM 73.0 °F - 55.0 °F 53% 29.82 in 10.0 mi SW 6.9 mph - N/A   Mostly Cloudy
9:53 PM 73.0 °F - 54.0 °F 51% 29.84 in 10.0 mi SSW 9.2 mph - N/A   Clear
10:53 PM 73.0 °F - 55.0 °F 53% 29.83 in 10.0 mi SW 11.5 mph - N/A   Scattered Clouds
11:53 PM 72.0 °F - 55.0 °F 55% 29.85 in 10.0 mi WSW 11.5 mph 20.7 mph N/A   Partly Cloudy